This demonstration page uses our WeatherBlox Daily Observations layout. Learn more.

Left ArrowRight Arrow

Hourly Observations for May 5, 2022

Temp ( °F °C ) Dew Point ( °F °C ) Humidity (%) Winds ( mph kmh ) Pressure ( in mb ) Visibility ( mi km ) Precip ( " mm )
12:14 am 00:14 Cloudy with Thunderstorms 54 12.2 53 11.7 97 97 NNW 14 22 29.98 1015 4 6 0.17 4.32
12:21 am 00:21 Cloudy with Nearby Thunderstorms 53 11.7 53 11.7 100 100 NNE 9 15 29.98 1015 6 10 0.20 5.08
12:38 am 00:38 Cloudy with Strong Thunderstorms 53 11.7 53 11.7 100 100 NW 17 28 30.01 1016 3 4 0.25 6.35
12:44 am 00:44 Cloudy with Strong Thunderstorms 53 11.7 53 11.7 100 100 N 14 22 29.99 1016 2 3 0.43 10.92
12:52 am 00:52 Cloudy with Strong Thunderstorms 54 12.2 53 11.7 97 97 NE 14 22 29.97 1015 3 4 0.56 14.22
12:57 am 00:57 Cloudy with Nearby Thunderstorms 54 12.2 53 11.7 97 97 N 15 24 29.97 1015 3 5 0.05 1.27
1:04 am 01:04 Cloudy with Nearby Thunderstorms 54 12.2 53 11.7 97 97 NE 10 17 29.99 1016 4 6 0.11 2.79
1:15 am 01:15 Cloudy with Strong Thunderstorms 54 12.2 53 11.7 97 97 NE 10 17 29.96 1015 3 5 0.21 5.33
1:52 am 01:52 Cloudy with Strong Thunderstorms 54 12.2 54 12.2 100 100 S 7 11 29.97 1015 3 4 0.47 11.94
2:00 am 02:00 Cloudy with Strong Thunderstorms 54 12.2 54 12.2 100 100 E 8 13 29.94 1014 2 3 0.16 4.06
2:06 am 02:06 Cloudy with Strong Thunderstorms 54 12.2 54 12.2 100 100 SE 9 15 29.96 1015 3 5 0.22 5.59
2:14 am 02:14 Cloudy with Strong Thunderstorms 54 12.2 54 12.2 100 100 S 8 13 29.96 1015 3 4 0.30 7.62
2:24 am 02:24 Cloudy with Strong Thunderstorms 54 12.2 54 12.2 100 100 E 7 11 29.95 1014 3 5 0.47 11.94
2:40 am 02:40 Cloudy with Light Rain 54 12.2 54 12.2 100 100 E 8 13 29.95 1014 5 8 0.56 14.22
2:49 am 02:49 Cloudy with Nearby Thunderstorms 54 12 54 12 100 100 ENE 10 17 29.93 1014 6 10 0.57 14.48
2:52 am 02:52 Cloudy with Nearby Thunderstorms 54 12.2 53 11.7 97 97 ENE 10 17 29.92 1013 6 10 0.58 14.73
3:10 am 03:10 Cloudy with Strong Thunderstorms 54 12.2 53 11.7 97 97 ENE 12 19 29.91 1013 5 8 0.10 2.54
3:29 am 03:29 Cloudy with Strong Thunderstorms 54 12.2 53 11.7 97 97 ENE 8 13 29.91 1013 5 8 0.21 5.33
3:36 am 03:36 Cloudy with Nearby Thunderstorms 54 12.2 53 11.7 97 97 E 7 11 29.90 1013 6 10 0.24 6.10
3:50 am 03:50 Cloudy with Rain 54 12 54 12 100 100 Calm 29.91 1013 7 11 0.28 7.11
3:52 am 03:52 Cloudy with Rain 54 12.2 54 12.2 100 100 Calm 29.91 1013 6 10 0.29 7.37
3:59 am 03:59 Cloudy with Nearby Thunderstorms 54 12.2 54 12.2 100 100 NNW 6 9 29.91 1013 5 8 0.02 0.51
4:29 am 04:29 Cloudy with Nearby Thunderstorms 54 12.2 54 12.2 100 100 Calm 29.92 1013 3 5 0.17 4.32
4:42 am 04:42 Cloudy with Strong Thunderstorms 54 12.2 53 11.7 97 97 WSW 6 9 29.94 1014 4 6 0.23 5.84
4:52 am 04:52 Cloudy with Nearby Thunderstorms 54 12.2 54 12.2 100 100 SW 8 13 29.95 1014 3 5 0.30 7.62
4:59 am 04:59 Cloudy with Nearby Thunderstorms 54 12.2 54 12.2 100 100 WSW 8 13 29.96 1015 5 8 0.04 1.02
5:42 am 05:42 Cloudy with Rain 54 12.2 53 11.7 97 97 SE 3 6 29.91 1013 6 10 0.28 7.11
5:52 am 05:52 Cloudy with Light Rain 54 12.2 53 11.7 97 97 E 7 11 29.88 1012 10 16 0.29 7.37
6:52 am 06:52 Cloudy with Light Rain 54 12.2 54 12.2 100 100 S 8 13 29.89 1012 10 16 0.04 1.02
7:06 am 07:06 Cloudy 54 12.2 54 12.2 100 100 S 9 15 29.90 1013 10 16 0.00 0.00
7:13 am 07:13 Cloudy with Light Rain 54 12.2 54 12.2 100 100 SSE 9 15 29.88 1012 10 16 0.00 0.00
7:52 am 07:52 Mostly Cloudy 55 12.8 55 12.8 100 100 SE 13 20 29.82 1010 10 16 0.01 0.25
8:22 am 08:22 Mostly Cloudy 57 13.9 55 12.8 93 93 SSE 12 19 29.83 1010 10 16 0.00 0.00
8:42 am 08:42 Mostly Cloudy 57 13.9 56 13.3 96 96 S 7 11 29.86 1011 10 16 0.00 0.00
8:52 am 08:52 Mostly Cloudy 57 13.9 55 12.8 93 93 SW 12 19 29.91 1013 10 16 0.00 0.00
9:00 am 09:00 Cloudy 57 13.9 56 13.3 96 96 WSW 10 17 29.93 1014 10 16 0.00 0.00
9:08 am 09:08 Cloudy with Light Rain 57 13.9 56 13.3 96 96 W 8 13 29.93 1014 10 16 0.00 0.00
9:52 am 09:52 Cloudy with Light Rain 58 14.4 58 14.4 100 100 NE 13 20 29.85 1011 10 16 0.01 0.25
10:00 am 10:00 Cloudy 58 14.4 57 13.9 97 97 ENE 8 13 29.85 1011 10 16 0.01 0.25
10:18 am 10:18 Mostly Cloudy 59 15 58 14.4 96 96 NNE 7 11 29.87 1011 10 16 0.01 0.25
10:52 am 10:52 Cloudy 61 16.1 58 14.4 90 90 NNW 9 15 29.89 1012 10 16 0.01 0.25
11:18 am 11:18 Cloudy 63 17.2 59 15 87 87 N 8 13 29.87 1011 10 16 0.00 0.00
11:48 am 11:48 Mostly Cloudy 63 17 57 14 83 83 ENE 3 6 29.87 1011 10 16 0.00 0.00
11:52 am 11:52 Mostly Cloudy 62 16.7 58 14.4 86 86 ESE 6 9 29.88 1012 10 16 0.00 0.00
12:38 pm 12:38 Partly Cloudy 65 18.3 58 14.4 78 78 E 5 7 29.81 1010 10 16 0.00 0.00
12:52 pm 12:52 Partly Cloudy 65 18.3 58 14.4 78 78 SE 5 7 29.83 1010 10 16 0.00 0.00
1:52 pm 13:52 Mostly Sunny 68 20 57 13.9 68 68 SE 10 17 29.81 1010 10 16 0.00 0.00
2:07 pm 14:07 Mostly Cloudy 67 19.4 57 13.9 71 71 ESE 3 6 29.80 1009 10 16 0.00 0.00
2:21 pm 14:21 Partly Cloudy 66 18.9 57 13.9 73 73 WSW 8 13 29.85 1011 10 16 0.00 0.00
2:52 pm 14:52 Cloudy with Rain 64 17.8 58 14.4 81 81 SW 9 15 29.90 1013 6 10 0.01 0.25
3:42 pm 15:42 Partly Cloudy 62 16.7 60 15.6 93 93 E 13 20 29.72 1006 10 16 0.06 1.52
3:52 pm 15:52 Mostly Sunny 62 16.7 59 15 90 90 ESE 13 20 29.72 1007 10 16 0.06 1.52
4:52 pm 16:52 Sunny 62 16.7 58 14.4 86 86 SSW 12 19 29.81 1010 10 16 0.00 0.00
5:52 pm 17:52 Mostly Cloudy 62 16.7 59 15 90 90 NNW 7 11 29.79 1009 10 16 0.00 0.00
6:21 pm 18:21 Cloudy 62 16.7 59 15 90 90 N 6 9 29.75 1007 10 16 0.00 0.00
6:52 pm 18:52 Partly Cloudy 62 16.7 58 14.4 86 86 N 3 6 29.75 1007 10 16 0.00 0.00
7:52 pm 19:52 Sunny 62 16.7 58 14.4 86 86 NNE 3 6 29.74 1007 10 16 0.00 0.00
8:52 pm 20:52 Mostly Clear 59 15 57 13.9 93 93 NNE 5 7 29.73 1007 10 16 0.00 0.00
9:52 pm 21:52 Mostly Cloudy 60 15.6 58 14.4 93 93 ENE 7 11 29.73 1007 10 16 0.00 0.00
10:39 pm 22:39 Cloudy with Nearby Thunderstorms 60 15.6 58 14.4 93 93 ENE 7 11 29.72 1007 10 16 0.03 0.76
10:52 pm 22:52 Cloudy with Nearby Thunderstorms 60 15.6 58 14.4 93 93 NE 8 13 29.70 1006 9 14 0.04 1.02
10:59 pm 22:59 Cloudy with Light Rain 60 15.6 58 14.4 93 93 ENE 9 15 29.70 1006 10 16 0.00 0.00
11:12 pm 23:12 Cloudy with Thunderstorms 60 15.6 58 14.4 93 93 NNE 6 9 29.70 1006 10 16 0.01 0.25
11:34 pm 23:34 Cloudy with Nearby Thunderstorms 59 15 58 14.4 96 96 NNE 6 9 29.71 1006 10 16 0.01 0.25
11:41 pm 23:41 Cloudy with Nearby Thunderstorms 59 15 58 14.4 96 96 N 7 11 29.70 1006 10 16 0.02 0.51
11:49 pm 23:49 Cloudy with Nearby Thunderstorms 59 15 57 14 94 94 N 5 7 29.70 1006 6 10 0.02 0.51
11:52 pm 23:52 Cloudy with Nearby Thunderstorms 59 15 58 14.4 96 96 N 7 11 29.69 1005 5 8 0.03 0.76

Powered by AerisWeather